Al Hoceima, Morocco

9:51 PM WET on February 20, 2018 (GMT +0000)
Al Hoceima

Weather History for GMTA - January, 2013

Change the Weather History Date:

Sunday, January 13, 2013

  Actual Average Record
Temperature  
Mean Temperature 52 °F -  
Max Temperature 60 °F 60 °F 71 °F (2017)
Min Temperature 43 °F 45 °F 39 °F (2009)
Degree Days  
Heating Degree Days 14    
Growing Degree Days 2 (Base 50)    
Moisture  
Dew Point 43 °F    
Average Humidity 61    
Maximum Humidity 77    
Minimum Humidity 42    
Precipitation  
Precipitation 0.04 in - - ()
Sea Level Pressure  
Sea Level Pressure 30.10 in    
Wind  
Wind Speed 8 mph ()    
Max Wind Speed 20 mph    
Max Gust Speed 33 mph    
Visibility 6.2 miles    
Events Rain    
Averages and records for this station are not official NWS values.
T = Trace of Precipitation, MM = Missing Value Source: Averaged Metar Reports

Daily Weather History Graph

Daily Weather History Graph

Search for Another Location

Airport or City:

Trip Planner

Search our weather history database for the weather conditions in past years. The results will help you decide how hot, cold, wet, or windy it might be!

Date:

Astronomy

Jan. 13, 2013 Rise Set
Actual Time 7:23 AM WET 5:24 PM WET
Civil Twilight 6:56 AM WET 5:52 PM WET
Nautical Twilight 6:24 AM WET 6:23 PM WET
Astronomical Twilight 5:54 AM WET 6:54 PM WET
Moon 8:18 AM WET (1/13) 7:40 PM WET (1/13)
Length of Visible Light 10h 56m
Length of Day
10h 01m
Waxing Crescent, 4% of the Moon is Illuminated
Jan 13
Waxing Crescent
Jan 18
First Quarter
Jan 27
Full
Feb 3
Last Quarter
Feb 10
New

Hourly Weather History & Observations

Time (WET) Temp. Windchill Dew Point Humidity Pressure Visibility Wind Dir Wind Speed Gust Speed Precip Events Conditions
6:00 AM 45 °F - 36 °F 60% 30.09 in 9 mi Calm Calm - -  
6:00 AM 44.6 °F 40.7 °F 35.6 °F 71% 30.06 in - South 6.9 mph - N/A   Clear
7:00 AM 46.4 °F 44.3 °F 37.4 °F 71% 30.06 in 6.2 mi SSW 4.6 mph - N/A   Partly Cloudy
8:00 AM 51.8 °F - 37.4 °F 58% 30.06 in 6.2 mi SW 4.6 mph - N/A   Partly Cloudy
9:00 AM 58 °F - 41 °F 42% 30.07 in 9 mi South 4.6 mph - -   Partly Cloudy
9:00 AM 57.2 °F - 41.0 °F 55% 30.06 in 6.2 mi South 6.9 mph - N/A   Scattered Clouds
10:00 AM 57.2 °F - 48.2 °F 72% 30.09 in 5.0 mi NW 19.6 mph 33.4 mph N/A   Mostly Cloudy
11:00 AM 55.4 °F - 48.2 °F 77% 30.12 in 5.0 mi WNW 18.4 mph - N/A   Mostly Cloudy
12:00 PM 55 °F - 47 °F 68% 30.14 in 5 mi West 13.8 mph - - Rain Light Rain
12:00 PM 55.4 °F - 48.2 °F 77% 30.12 in 5.0 mi West 13.8 mph 28.8 mph N/A Rain Light Rain
1:00 PM 57.2 °F - 48.2 °F 72% 30.09 in 6.2 mi West 11.5 mph - N/A   Scattered Clouds
2:00 PM 59.0 °F - 48.2 °F 67% 30.09 in 6.2 mi WNW 18.4 mph - N/A   Scattered Clouds
3:00 PM 59 °F - 46 °F 51% 30.13 in 6 mi West 16.1 mph - -   Partly Cloudy
3:00 PM 59.0 °F - 46.4 °F 63% 30.12 in 6.2 mi West 16.1 mph - N/A   Scattered Clouds
4:00 PM 60.8 °F - 42.8 °F 52% 30.12 in 6.2 mi WNW 13.8 mph - N/A   Partly Cloudy
5:00 PM 59.0 °F - 42.8 °F 55% 30.12 in 6.2 mi West 6.9 mph - N/A   Unknown
6:00 PM 57 °F - 41 °F 44% 30.13 in 6 mi West 9.2 mph - -   Scattered Clouds
6:00 PM 57.2 °F - 41.0 °F 55% 30.12 in 6.2 mi West 9.2 mph - N/A   Partly Cloudy
7:00 PM 57.2 °F - 41.0 °F 55% 30.12 in 6.2 mi West 9.2 mph - N/A   Partly Cloudy
9:00 PM 55 °F - 42 °F 52% 30.12 in 6 mi West 2.3 mph - -  
9:00 PM 55.4 °F - 42.8 °F 63% 30.09 in - West 2.3 mph - N/A   Clear